| time (UTC) | temp F | wind direction | speed knots | gust knots | rain 1hr in | rain 24hr in | rain mn in | humidity % | barometer mb |
| 20260506203655 | 51 | 0.0 | 0.0 | 0.00 | 0.00 | 0.00 | 20 | 1016.4 | |
| 20260506202603 | 51 | 0.0 | 0.0 | 0.00 | 0.00 | 0.00 | 20 | 1016.4 | |
| 20260506201535 | 51 | 0.0 | 0.0 | 0.00 | 0.00 | 0.00 | 21 | 1016.3 | |
| 20260506200533 | 51 | 0.0 | 0.0 | 0.00 | 0.00 | 0.00 | 22 | 1016.2 | |
| 20260506195534 | 51 | 0.0 | 0.0 | 0.00 | 0.00 | 0.00 | 22 | 1016.1 | |
| 20260506194535 | 52 | 0.0 | 0.0 | 0.00 | 0.00 | 0.00 | 23 | 1016.1 | |
| 20260506193533 | 52 | 0.0 | 0.0 | 0.00 | 0.00 | 0.00 | 24 | 1016.0 | |
| 20260506192533 | 52 | 0.0 | 0.0 | 0.00 | 0.00 | 0.00 | 27 | 1015.9 | |
| 20260506191535 | 52 | 0.0 | 0.0 | 0.00 | 0.00 | 0.00 | 26 | 1015.8 | |
| 20260506190534 | 53 | 0.0 | 0.0 | 0.00 | 0.00 | 0.00 | 31 | 1015.7 | |
| 20260506185533 | 53 | 0.0 | 0.0 | 0.00 | 0.00 | 0.00 | 34 | 1015.6 | |
| 20260506184602 | 53 | 0.0 | 0.0 | 0.00 | 0.00 | 0.00 | 37 | 1015.5 | |
| 20260506183643 | 54 | 0.0 | 0.0 | 0.00 | 0.00 | 0.00 | 40 | 1015.4 | |
| 20260506182632 | 54 | 0.0 | 0.0 | 0.00 | 0.00 | 0.00 | 42 | 1015.3 | |
| 20260506181532 | 54 | 0.0 | 0.0 | 0.00 | 0.00 | 0.00 | 44 | 1015.1 | |
| 20260506180532 | 54 | 0.0 | 0.0 | 0.00 | 0.00 | 0.00 | 46 | 1015.0 | |
| 20260506175532 | 55 | 0.0 | 0.0 | 0.00 | 0.00 | 0.00 | 48 | 1014.9 | |
| 20260506174554 | 55 | 0.0 | 0.0 | 0.00 | 0.00 | 0.00 | 50 | 1014.8 | |
| 20260506173555 | 55 | 0.0 | 0.0 | 0.00 | 0.00 | 0.00 | 51 | 1014.7 | |
| 20260506172602 | 56 | 0.0 | 0.0 | 0.00 | 0.00 | 0.00 | 52 | 1014.6 | |
| 20260506171532 | 56 | 0.0 | 0.0 | 0.00 | 0.00 | 0.00 | 53 | 1014.5 | |
| 20260506170602 | 56 | 0.0 | 0.0 | 0.00 | 0.00 | 0.00 | 56 | 1014.4 | |
| 20260506165533 | 57 | 0.0 | 0.0 | 0.00 | 0.00 | 0.00 | 56 | 1014.3 | |
| 20260506164553 | 58 | 0.0 | 0.0 | 0.00 | 0.00 | 0.00 | 57 | 1014.1 | |
| 20260506163551 | 58 | 0.0 | 0.0 | 0.00 | 0.00 | 0.00 | 57 | 1013.9 | |
| 20260506162532 | 59 | 0.0 | 0.0 | 0.00 | 0.00 | 0.00 | 57 | 1013.8 | |
| 20260506161653 | 59 | 0.0 | 0.0 | 0.00 | 0.00 | 0.00 | 57 | 1013.8 | |
| 20260506160633 | 59 | 0.0 | 0.0 | 0.00 | 0.00 | 0.00 | 57 | 1013.8 | |
| 20260506155613 | 59 | 0.0 | 0.0 | 0.00 | 0.00 | 0.00 | 57 | 1013.8 | |
| 20260506154533 | 59 | 0.0 | 0.0 | 0.00 | 0.00 | 0.00 | 57 | 1013.8 | |
| 20260506153531 | 59 | 0.0 | 0.0 | 0.00 | 0.00 | 0.00 | 57 | 1013.8 | |
| 20260506152531 | 60 | 0.0 | 0.0 | 0.00 | 0.00 | 0.00 | 56 | 1013.7 | |
| 20260506151531 | 60 | 0.0 | 0.0 | 0.00 | 0.00 | 0.00 | 56 | 1013.7 | |
| 20260506150531 | 60 | 0.0 | 0.0 | 0.00 | 0.00 | 0.00 | 56 | 1013.6 | |
| 20260506145532 | 60 | 0.0 | 0.0 | 0.00 | 0.00 | 0.00 | 56 | 1013.5 | |
| 20260506144601 | 60 | 0.0 | 0.0 | 0.00 | 0.00 | 0.00 | 57 | 1013.6 | |
| 20260506143531 | 61 | 0.0 | 0.0 | 0.00 | 0.00 | 0.00 | 56 | 1013.6 | |
| 20260506142532 | 61 | 0.0 | 0.0 | 0.00 | 0.00 | 0.00 | 56 | 1013.5 | |
| 20260506141530 | 61 | 0.0 | 0.0 | 0.00 | 0.00 | 0.00 | 56 | 1013.5 | |
| 20260506140652 | 61 | 0.0 | 0.0 | 0.00 | 0.00 | 0.00 | 56 | 1013.5 | |
| 20260506135530 | 61 | 0.0 | 0.0 | 0.00 | 0.00 | 0.00 | 56 | 1013.5 | |
| 20260506134530 | 61 | 0.0 | 0.0 | 0.00 | 0.00 | 0.00 | 56 | 1013.5 | |
| 20260506133531 | 61 | 0.0 | 0.0 | 0.00 | 0.00 | 0.00 | 56 | 1013.5 | |
| 20260506132550 | 61 | 0.0 | 0.0 | 0.00 | 0.00 | 0.00 | 54 | 1013.4 | |
| 20260506131532 | 60 | 0.0 | 0.0 | 0.00 | 0.00 | 0.00 | 55 | 1013.4 | |
| 20260506130530 | 60 | 0.0 | 0.0 | 0.00 | 0.00 | 0.00 | 54 | 1013.3 | |
| 20260506125530 | 60 | 0.0 | 0.0 | 0.00 | 0.00 | 0.00 | 52 | 1013.3 | |
| 20260506124559 | 60 | 0.0 | 0.0 | 0.00 | 0.00 | 0.00 | 48 | 1013.3 | |
| 20260506123529 | 60 | 0.0 | 0.0 | 0.00 | 0.00 | 0.00 | 41 | 1013.3 | |
| 20260506122600 | 60 | 0.0 | 0.0 | 0.00 | 0.00 | 0.00 | 28 | 1013.2 | |
| 20260506121529 | 59 | 0.0 | 0.0 | 0.00 | 0.00 | 0.00 | 31 | 1013.1 | |
| 20260506120529 | 59 | 0.0 | 0.0 | 0.00 | 0.00 | 0.00 | 22 | 1013.0 | |
| 20260506115529 | 59 | 0.0 | 0.0 | 0.00 | 0.00 | 0.00 | 20 | 1013.1 | |
| 20260506114559 | 57 | 0.0 | 0.0 | 0.00 | 0.00 | 0.00 | 1 | 1013.2 | |
| 20260506113551 | 57 | 0.0 | 0.0 | 0.00 | 0.00 | 0.00 | 5 | 1013.1 | |
| 20260506112549 | 55 | 0.0 | 0.0 | 0.00 | 0.00 | 0.00 | 1 | 1013.1 | |
| 20260506111531 | 54 | 0.0 | 0.0 | 0.00 | 0.00 | 0.00 | 1 | 1013.1 | |
| 20260506110530 | 55 | 0.0 | 0.0 | 0.00 | 0.00 | 0.00 | 1 | 1013.2 | |
| 20260506105530 | 55 | 0.0 | 0.0 | 0.00 | 0.00 | 0.00 | 1 | 1013.2 | |
| 20260506104529 | 56 | 0.0 | 0.0 | 0.00 | 0.00 | 0.00 | 2 | 1013.2 | |
| 20260506103529 | 57 | 0.0 | 0.0 | 0.00 | 0.00 | 0.00 | 1 | 1013.3 | |
| 20260506102610 | 56 | 0.0 | 0.0 | 0.00 | 0.00 | 0.00 | 1 | 1013.2 | |
| 20260506101528 | 56 | 0.0 | 0.0 | 0.00 | 0.00 | 0.00 | 1 | 1013.1 | |
| 20260506100628 | 55 | 0.0 | 0.0 | 0.00 | 0.00 | 0.00 | 1 | 1013.1 | |
| 20260506095530 | 55 | 0.0 | 0.0 | 0.00 | 0.00 | 0.00 | 1 | 1013.0 | |
| 20260506094558 | 55 | 0.0 | 0.0 | 0.00 | 0.00 | 0.00 | 1 | 1013.0 | |
| 20260506093628 | 55 | 0.0 | 0.0 | 0.00 | 0.00 | 0.00 | 1 | 1013.0 | |
| 20260506092528 | 54 | 0.0 | 0.0 | 0.00 | 0.00 | 0.00 | 1 | 1013.0 | |
| 20260506091528 | 54 | 0.0 | 0.0 | 0.00 | 0.00 | 0.00 | 1 | 1012.9 | |
| 20260506090628 | 54 | 0.0 | 0.0 | 0.00 | 0.00 | 0.00 | 1 | 1012.9 | |
| 20260506085558 | 53 | 0.0 | 0.0 | 0.00 | 0.00 | 0.00 | 1 | 1012.8 | |
| 20260506084528 | 52 | 0.0 | 0.0 | 0.00 | 0.00 | 0.00 | 1 | 1012.7 | |
| 20260506083528 | 52 | 0.0 | 0.0 | 0.00 | 0.00 | 0.00 | 1 | 1012.7 | |
| 20260506082529 | 52 | 0.0 | 0.0 | 0.00 | 0.00 | 0.00 | 1 | 1012.6 | |
| 20260506081557 | 52 | 0.0 | 0.0 | 0.00 | 0.00 | 0.00 | 1 | 1012.6 | |
| 20260506080528 | 51 | 0.0 | 0.0 | 0.00 | 0.00 | 0.00 | 1 | 1012.6 | |
| 20260506073527 | 50 | 0.0 | 0.0 | 0.00 | 0.00 | 0.00 | 1 | 1012.5 | |
| 20260506072529 | 50 | 0.0 | 0.0 | 0.00 | 0.00 | 0.00 | 1 | 1012.4 | |
| 20260506071627 | 50 | 0.0 | 0.0 | 0.00 | 0.00 | 0.00 | 1 | 1012.4 | |
| 20260506070628 | 50 | 0.0 | 0.0 | 0.00 | 0.00 | 0.00 | 1 | 1012.4 | |
| 20260506061547 | 49 | 0.0 | 0.0 | 0.00 | 0.00 | 0.00 | 1 | 1012.0 | |
| 20260506060557 | 49 | 0.0 | 0.0 | 0.00 | 0.00 | 0.00 | 1 | 1012.0 | |
| 20260506050626 | 49 | 0.0 | 0.0 | 0.00 | 0.00 | 0.00 | 1 | 1011.9 | |
| 20260506044559 | 49 | 0.0 | 0.0 | 0.00 | 0.00 | 0.00 | 1 | 1011.9 | |
| 20260506043526 | 49 | 0.0 | 0.0 | 0.00 | 0.00 | 0.00 | 1 | 1011.9 | |
| 20260506042626 | 49 | 0.0 | 0.0 | 0.00 | 0.00 | 0.00 | 1 | 1011.9 | |
| 20260506041527 | 49 | 0.0 | 0.0 | 0.00 | 0.00 | 0.00 | 1 | 1011.8 | |
| 20260506040626 | 49 | 0.0 | 0.0 | 0.00 | 0.00 | 0.00 | 1 | 1011.9 | |
| 20260506035525 | 49 | 0.0 | 0.0 | 0.00 | 0.00 | 0.00 | 1 | 1011.9 | |
| 20260506034525 | 49 | 0.0 | 0.0 | 0.00 | 0.00 | 0.00 | 1 | 1012.0 | |
| 20260506033648 | 49 | 0.0 | 0.0 | 0.00 | 0.00 | 0.00 | 1 | 1012.0 | |
| 20260506032525 | 49 | 0.0 | 0.0 | 0.00 | 0.00 | 0.00 | 1 | 1012.1 | |
| 20260506031645 | 49 | 0.0 | 0.0 | 0.00 | 0.00 | 0.00 | 1 | 1012.1 | |
| 20260506030545 | 49 | 0.0 | 0.0 | 0.00 | 0.00 | 0.00 | 1 | 1012.2 | |
| 20260506025525 | 49 | 0.0 | 0.0 | 0.00 | 0.00 | 0.00 | 1 | 1012.3 | |
| 20260506024525 | 49 | 0.0 | 0.0 | 0.00 | 0.00 | 0.00 | 1 | 1012.4 | |
| 20260506023525 | 49 | 0.0 | 0.0 | 0.00 | 0.00 | 0.00 | 1 | 1012.4 | |
| 20260506022546 | 49 | 0.0 | 0.0 | 0.00 | 0.00 | 0.00 | 1 | 1012.4 | |
| 20260506021625 | 49 | 0.0 | 0.0 | 0.00 | 0.00 | 0.00 | 1 | 1012.4 | |
| 20260506020626 | 49 | 0.0 | 0.0 | 0.00 | 0.00 | 0.00 | 1 | 1012.4 | |
| 20260506015525 | 49 | 0.0 | 0.0 | 0.00 | 0.00 | 0.00 | 1 | 1012.4 | |
| 20260506014529 | 50 | 0.0 | 0.0 | 0.00 | 0.00 | 0.00 | 1 | 1012.4 | |
| 20260506013524 | 50 | 0.0 | 0.0 | 0.00 | 0.00 | 0.00 | 1 | 1012.5 | |
| 20260506012526 | 50 | 0.0 | 0.0 | 0.00 | 0.00 | 0.00 | 1 | 1012.5 | |
| 20260506011556 | 50 | 0.0 | 0.0 | 0.00 | 0.00 | 0.00 | 1 | 1012.5 | |
| 20260506010524 | 50 | 0.0 | 0.0 | 0.00 | 0.00 | 0.00 | 1 | 1012.6 | |
| 20260506005644 | 50 | 0.0 | 0.0 | 0.00 | 0.00 | 0.00 | 1 | 1012.7 | |
| 20260506004524 | 50 | 0.0 | 0.0 | 0.00 | 0.00 | 0.00 | 1 | 1012.8 | |
| 20260506003626 | 50 | 0.0 | 0.0 | 0.00 | 0.00 | 0.00 | 1 | 1012.8 | |
| 20260506002524 | 50 | 0.0 | 0.0 | 0.00 | 0.00 | 0.00 | 1 | 1012.9 | |
| 20260506001624 | 50 | 0.0 | 0.0 | 0.00 | 0.00 | 0.00 | 1 | 1012.9 | |
| 20260506000624 | 50 | 0.0 | 0.0 | 0.00 | 0.00 | 0.00 | 1 | 1013.0 | |
| 20260505235524 | 51 | 0.0 | 0.0 | 0.00 | 0.00 | 0.00 | 1 | 1013.1 | |
| 20260505234524 | 51 | 0.0 | 0.0 | 0.00 | 0.00 | 0.00 | 1 | 1013.1 | |
| 20260505233623 | 51 | 0.0 | 0.0 | 0.00 | 0.00 | 0.00 | 1 | 1013.1 | |
| 20260505232645 | 51 | 0.0 | 0.0 | 0.00 | 0.00 | 0.00 | 1 | 1013.2 | |
| 20260505231523 | 51 | 0.0 | 0.0 | 0.00 | 0.00 | 0.00 | 1 | 1013.2 | |
| 20260505230525 | 51 | 0.0 | 0.0 | 0.00 | 0.00 | 0.00 | 1 | 1013.3 | |
| 20260505225525 | 51 | 0.0 | 0.0 | 0.00 | 0.00 | 0.00 | 1 | 1013.3 | |
| 20260505224543 | 51 | 0.0 | 0.0 | 0.00 | 0.00 | 0.00 | 1 | 1013.4 | |
| 20260505223525 | 51 | 0.0 | 0.0 | 0.00 | 0.00 | 0.00 | 1 | 1013.4 | |
| 20260505222525 | 51 | 0.0 | 0.0 | 0.00 | 0.00 | 0.00 | 1 | 1013.4 | |
| 20260505221554 | 51 | 0.0 | 0.0 | 0.00 | 0.00 | 0.00 | 1 | 1013.5 | |
| 20260505220523 | 51 | 0.0 | 0.0 | 0.00 | 0.00 | 0.00 | 1 | 1013.6 | |
| 20260505215643 | 51 | 0.0 | 0.0 | 0.00 | 0.00 | 0.00 | 1 | 1013.7 | |
| 20260505214523 | 51 | 0.0 | 0.0 | 0.00 | 0.00 | 0.00 | 1 | 1013.7 | |
| 20260505213544 | 51 | 0.0 | 0.0 | 0.00 | 0.00 | 0.00 | 1 | 1013.7 | |
| 20260505212643 | 51 | 0.0 | 0.0 | 0.00 | 0.00 | 0.00 | 1 | 1013.7 | |
| 20260505211522 | 51 | 0.0 | 0.0 | 0.00 | 0.00 | 0.00 | 1 | 1013.7 | |
| 20260505210522 | 51 | 0.0 | 0.0 | 0.00 | 0.00 | 0.00 | 1 | 1013.8 | |
| 20260505205644 | 51 | 0.0 | 0.0 | 0.00 | 0.00 | 0.00 | 1 | 1013.8 | |
| 20260505204542 | 51 | 0.0 | 0.0 | 0.00 | 0.00 | 0.00 | 1 | 1013.8 |